This is the latest recevied weather packets stored in our database for station/object PY2VE-13. If no packets are shown the sender has not sent any weather packets the latest 10 day(s).
| Time | Temp. | Humidity | Pressure | Rain* | Wind** | Luminosity | Snow |
|---|---|---|---|---|---|---|---|
| 1777778327 | 24.44° C | 48% | 1023.9 hPa | - | - | - | - |
| 1777777427 | 24.44° C | 48% | 1024.2 hPa | - | - | - | - |
| 1777776527 | 25° C | 47% | 1024.2 hPa | - | - | - | - |
| 1777775626 | 23.33° C | 51% | 1024.9 hPa | - | - | - | - |
| 1777774727 | 24.44° C | 48% | 1024.5 hPa | - | - | - | - |
| 1777773827 | 24.44° C | 48% | 1024.5 hPa | - | - | - | - |
| 1777772926 | 23.89° C | 52% | 1024.5 hPa | - | - | - | - |
| 1777772026 | 24.44° C | 51% | 1024.5 hPa | - | - | - | - |
| 1777771126 | 25° C | 50% | 1024.2 hPa | - | - | - | - |
| 1777770226 | 25.56° C | 49% | 1024.1 hPa | - | - | - | - |
| 1777769326 | 25° C | 49% | 1024.2 hPa | - | - | - | - |
| 1777768426 | 23.89° C | 53% | 1024.5 hPa | - | - | - | - |
| 1777767526 | 23.89° C | 54% | 1024.6 hPa | - | - | - | - |
| 1777766626 | 23.89° C | 54% | 1024.8 hPa | - | - | - | - |
| 1777765726 | 23.89° C | 53% | 1025 hPa | - | - | - | - |
| 1777764826 | 25° C | 50% | 1024.4 hPa | - | - | - | - |
| 1777763926 | 25.56° C | 48% | 1024.2 hPa | - | - | - | - |
| 1777763026 | 27.22° C | 44% | 1023.5 hPa | - | - | - | - |
| 1777762126 | 27.22° C | 45% | 1023.6 hPa | - | - | - | - |
| 1777761226 | 26.67° C | 46% | 1023.7 hPa | - | - | - | - |
| 1777760326 | 26.67° C | 46% | 1023.7 hPa | - | - | - | - |
| 1777759426 | 26.67° C | 47% | 1023.6 hPa | - | - | - | - |
| 1777758526 | 25.56° C | 50% | 1023.9 hPa | - | - | - | - |
| 1777757626 | 25.56° C | 50% | 1023.7 hPa | - | - | - | - |
| 1777756726 | 24.44° C | 52% | 1023.6 hPa | - | - | - | - |
* Rain since midnight (hover to see other rain measurements)
** Current wind speed in m/s (hover to see current wind gust speed)